Wind_Speed
4 4 4 5 5 6 6 6 7 7 8 8 8 8 8 8 8 8 7 7 6 6 5 5 5 5 4 4 4 4 4 4 4 5 5 6 6 6 6 6 7 7 7
3 4 5 5 5 5 5 5 5 6 7 7 7 7 7 7 8 8 7 7 6 6 5 5 5 5 4 4 4 4 4 4 4 4 5 5 5 5 6 6 6 7 7
3 4 5 5 5 5 4 4 4 5 5 6 6 6 6 7 7 7 7 7 6 6 6 5 5 5 4 4 4 4 4 4 4 4 4 4 5 5 5 5 6 6 6
2 4 6 6 5 5 5 4 3 3 4 4 4 5 6 6 7 7 7 7 7 6 6 6 5 5 4 4 4 3 3 3 3 3 3 3 4 4 5 5 6 6 6
2 4 5 6 6 6 5 4 3 3 3 3 3 4 5 6 6 7 7 7 7 6 6 6 5 5 4 4 3 3 3 2 2 3 3 3 4 4 4 5 6 6 6
3 5 6 6 7 6 6 5 4 3 2 2 2 3 4 5 6 6 7 7 7 6 6 6 5 4 4 4 3 3 2 2 2 2 2 3 4 4 4 4 5 5 5
3 5 7 8 8 8 7 6 5 3 2 2 1 2 3 4 5 6 6 6 6 6 6 5 5 4 4 3 3 3 2 2 2 2 3 3 4 3 3 4 4 4 5
4 4 6 8 9 8 8 7 6 4 3 3 1 1 2 4 4 5 5 6 6 5 5 4 4 3 3 3 2 2 2 2 2 2 3 3 3 3 3 3 4 4 5
4 4 6 8 9 9 9 8 7 6 5 3 2 1 1 3 4 4 5 5 5 5 4 4 4 3 3 3 2 2 1 2 2 2 3 3 3 3 3 3 3 4 5
5 5 6 8 10 10 10 10 9 8 7 5 4 2 1 2 3 4 4 4 4 4 4 3 3 3 2 2 2 2 1 2 2 3 3 3 4 3 3 4 3 4 5
7 7 7 8 10 11 11 11 10 9 8 7 5 4 3 2 3 4 4 4 4 3 3 3 3 3 2 1 2 2 1 1 2 3 3 3 4 4 4 4 4 5 5
8 7 7 9 11 12 12 12 11 11 10 8 7 5 4 3 3 4 4 3 3 3 3 3 3 2 2 1 1 0 0 1 2 2 3 3 4 4 4 5 5 6 6
9 7 7 9 10 12 13 13 13 13 12 10 8 7 6 4 4 4 3 3 3 2 2 3 3 2 2 1 0 0 1 1 2 2 2 3 4 5 5 6 6 6 7
9 9 9 9 10 12 13 14 14 14 14 12 11 9 7 6 5 4 3 3 3 2 2 3 3 3 2 2 1 1 1 2 2 2 2 4 4 5 6 6 7 7 8
10 8 8 10 12 13 14 14 14 15 15 14 13 10 9 7 5 4 4 3 3 3 2 3 3 3 2 2 2 2 2 2 3 3 3 4 5 5 5 6 6 8 9
11 7 8 9 12 13 14 15 15 15 16 16 14 12 11 9 7 6 5 5 4 3 3 3 3 3 2 2 2 2 2 2 3 3 4 5 5 5 5 6 7 8 9
10 7 8 9 12 13 14 15 16 16 17 17 16 15 13 12 9 7 7 6 5 5 4 4 3 2 2 2 2 2 3 3 3 3 3 4 4 5 5 6 7 7 7
11 10 10 9 11 14 15 16 16 16 17 18 18 16 15 13 11 10 8 7 6 6 5 3 3 2 2 2 2 2 3 3 3 3 3 4 4 4 5 5 6 6 6
11 10 10 9 9 12 15 15 16 18 19 18 18 17 17 15 13 12 10 8 8 7 5 4 3 3 3 3 2 3 3 3 3 3 3 3 3 4 4 5 5 6 6
11 10 9 8 8 11 14 15 16 18 19 18 17 18 17 16 14 13 11 10 9 8 7 5 4 3 3 3 2 2 3 3 3 3 3 3 3 3 3 4 5 5 6
12 11 9 8 8 9 12 15 16 18 19 19 18 19 18 17 15 14 12 11 10 9 8 7 5 4 3 3 2 2 2 2 3 3 3 3 2 2 2 3 4 5 5
13 10 8 7 7 10 12 15 17 19 20 19 18 19 18 18 17 15 13 12 12 11 9 8 7 5 4 4 3 3 3 3 3 2 2 2 2 2 2 3 3 4 4
13 11 10 9 9 10 11 12 15 16 18 19 18 19 18 18 17 16 15 13 13 12 11 10 8 7 6 5 5 5 4 4 3 3 3 3 3 2 2 2 3 4 4
13 11 8 7 8 10 11 12 14 15 16 17 19 20 19 18 17 16 16 14 14 14 13 12 10 9 8 8 7 6 5 5 5 4 4 4 4 3 3 3 4 4 5
12 10 7 6 7 9 11 12 13 14 15 18 19 19 19 19 18 18 17 16 15 15 14 13 12 11 10 9 9 8 7 7 7 6 6 5 5 5 5 6 6 6 7
11 9 7 6 6 7 10 11 11 13 15 17 19 20 20 19 19 19 19 17 17 16 16 15 14 14 13 12 11 10 10 10 9 9 9 8 8 8 8 8 9 9 9
Wind_Direction
155 162 172 169 161 154 142 127 113 100 90 79 68 58 51 46 40 38 36 32 30 32 36 39 45 48 51 55 60 65 68 71 75 82 91 97 101 104 107 107 105 110 114
181 182 188 187 176 165 151 134 118 106 96 82 69 57 48 41 37 35 33 30 26 28 33 39 44 46 49 56 58 65 72 75 80 88 95 99 101 110 114 111 109 113 118
210 203 198 196 189 183 167 147 127 115 102 87 71 58 46 39 33 31 30 27 24 26 31 37 42 45 47 51 54 61 71 77 82 90 97 105 114 115 115 117 117 118 122
219 222 212 205 196 191 182 168 144 129 111 94 74 58 45 36 32 28 26 26 26 29 33 36 39 42 43 46 52 61 73 81 89 94 99 117 124 121 118 123 128 124 124
229 224 216 205 200 197 196 190 175 160 129 106 79 55 39 31 28 26 25 26 27 30 34 35 35 36 40 44 55 65 76 87 101 107 113 128 133 125 127 132 134 127 128
244 224 215 207 201 201 203 201 191 179 156 126 86 43 29 25 25 25 24 26 27 28 30 32 33 34 41 47 53 65 84 87 99 115 131 137 138 132 136 139 137 137 136
250 222 217 212 207 208 207 205 203 196 184 170 113 34 19 18 21 23 22 22 24 24 25 29 31 36 41 47 57 66 77 92 97 113 128 142 144 143 149 145 149 150 148
270 237 223 211 209 212 209 207 206 205 199 184 168 34 15 10 13 17 17 16 18 19 21 24 26 33 37 43 54 62 72 94 112 122 133 151 159 156 158 161 164 163 162
279 252 223 212 213 213 211 210 209 210 208 203 206 235 353 357 359 7 10 10 10 14 20 22 24 25 28 36 42 46 71 108 121 128 144 155 163 163 165 174 180 179 174
280 256 230 217 217 216 212 210 211 214 217 215 218 223 265 335 342 346 352 355 355 3 13 18 15 14 19 34 46 55 90 119 133 138 156 169 172 174 182 188 193 191 182
287 257 240 226 218 214 213 213 213 215 219 220 221 226 252 295 316 322 328 334 337 347 358 6 3 2 4 29 57 78 93 119 148 157 170 181 187 192 196 198 200 202 196
297 268 246 230 221 215 215 215 216 217 218 220 222 229 244 264 289 299 309 320 326 333 341 351 353 347 343 356 48 76 101 147 175 180 189 199 205 207 209 211 212 213 208
305 278 252 235 225 216 217 217 218 218 217 219 221 227 236 250 267 278 289 302 310 313 325 337 334 322 319 320 37 210 214 203 209 217 218 218 218 219 220 221 222 222 218
308 286 250 241 231 222 219 218 220 219 218 219 221 223 229 239 251 264 270 282 290 290 303 321 316 300 292 283 268 247 244 224 220 218 228 223 226 228 227 228 228 229 226
308 286 262 240 232 229 225 223 220 219 220 219 221 223 226 231 241 252 262 270 272 272 284 303 297 288 278 268 267 256 248 234 237 243 245 237 229 229 231 233 232 231 230
309 286 267 240 231 228 228 224 220 219 218 217 218 222 225 227 232 243 253 256 256 259 272 286 286 278 268 263 262 250 257 245 252 257 253 246 236 233 234 238 237 235 237
308 296 274 248 236 226 225 222 217 218 218 219 218 221 224 224 228 235 242 248 253 254 266 278 277 271 267 261 261 259 258 261 268 258 248 246 238 235 240 243 238 235 235
306 298 284 260 240 232 224 219 217 216 216 218 219 221 220 222 226 229 234 242 251 254 259 263 265 263 264 258 258 263 260 263 270 256 253 245 238 233 234 240 233 231 231
312 304 290 272 253 233 225 220 216 216 215 217 220 221 220 221 223 226 230 237 244 251 255 258 266 267 262 256 251 253 255 263 270 271 252 242 235 234 232 234 230 231 233
314 304 300 281 254 227 226 223 220 218 218 217 219 218 219 220 221 224 227 234 240 245 248 250 258 262 252 247 249 251 257 265 271 271 253 242 236 233 226 227 231 233 240
314 307 295 286 254 230 229 224 220 218 217 217 219 217 217 218 218 221 226 231 235 239 241 242 244 245 241 237 241 247 258 261 258 254 239 230 220 215 218 232 239 246 249
319 311 306 289 254 236 228 223 219 219 217 216 217 217 217 218 218 220 226 230 231 235 236 237 236 237 238 234 236 243 251 256 251 241 228 213 206 214 230 240 246 259 258
316 307 298 290 260 231 223 223 218 220 219 216 216 216 216 217 219 221 225 228 229 234 237 236 234 235 235 236 238 245 249 248 248 243 233 226 224 227 238 251 260 266 270
313 307 305 289 253 231 227 224 221 222 219 215 217 218 219 218 221 225 226 229 232 235 236 235 233 235 236 238 240 246 249 248 245 243 242 242 241 246 253 259 268 270 273
313 309 301 279 258 238 232 228 223 220 218 219 219 219 221 222 224 227 228 230 232 234 235 235 235 236 237 240 243 246 248 247 245 243 242 245 252 259 264 269 272 274 274
314 307 296 279 268 257 246 237 226 223 222 222 222 223 224 224 226 228 229 230 232 234 236 237 237 237 239 242 244 247 249 249 248 248 249 252 257 264 268 270 272 273 273
Height
5872 5873 5874 5875 5876 5876 5877 5877 5878 5879 5880 5881 5882 5883 5884 5885 5885 5885 5885 5886 5886 5886 5885 5885 5885 5886 5886 5886 5886 5886 5886 5886 5887 5887 5887 5887 5887 5888 5888 5889 5889 5890 5891
5872 5873 5874 5875 5876 5876 5877 5878 5878 5880 5881 5882 5883 5884 5884 5885 5885 5886 5886 5886 5886 5886 5886 5886 5886 5886 5886 5886 5886 5886 5886 5887 5887 5887 5887 5888 5888 5889 5889 5890 5890 5891 5892
5872 5872 5873 5875 5875 5876 5877 5878 5879 5880 5881 5882 5883 5884 5885 5885 5886 5886 5886 5886 5886 5886 5886 5886 5886 5886 5886 5886 5886 5886 5887 5887 5887 5888 5888 5888 5889 5889 5890 5890 5891 5892 5892
5872 5872 5873 5874 5875 5876 5877 5878 5879 5880 5881 5882 5883 5884 5885 5885 5886 5886 5886 5886 5886 5886 5886 5886 5886 5886 5887 5887 5887 5887 5887 5888 5888 5888 5889 5889 5889 5890 5890 5891 5892 5892 5893
5871 5872 5873 5873 5874 5875 5877 5878 5879 5880 5881 5882 5884 5884 5885 5885 5886 5886 5886 5886 5886 5886 5886 5887 5887 5887 5887 5887 5887 5887 5887 5888 5888 5889 5889 5890 5890 5890 5891 5892 5892 5893 5894
5870 5871 5872 5873 5874 5875 5876 5878 5879 5880 5881 5882 5884 5884 5885 5885 5886 5886 5886 5887 5887 5887 5887 5887 5887 5887 5887 5887 5887 5887 5888 5888 5888 5889 5889 5890 5890 5891 5891 5892 5893 5893 5894
5870 5870 5871 5871 5873 5874 5875 5877 5878 5880 5881 5882 5883 5884 5885 5885 5886 5886 5887 5887 5887 5887 5887 5887 5887 5887 5887 5887 5888 5888 5888 5888 5888 5889 5889 5890 5890 5891 5892 5892 5893 5894 5894
5869 5869 5869 5870 5872 5873 5875 5876 5877 5879 5880 5882 5883 5884 5885 5885 5886 5886 5887 5887 5887 5887 5887 5887 5887 5887 5887 5888 5888 5888 5888 5888 5888 5889 5889 5890 5891 5891 5892 5893 5893 5894 5895
5867 5868 5868 5869 5870 5872 5873 5875 5877 5878 5880 5881 5882 5883 5884 5885 5886 5887 5887 5887 5887 5887 5887 5887 5887 5888 5888 5888 5888 5887 5888 5888 5888 5889 5889 5890 5891 5891 5892 5893 5893 5894 5895
5867 5867 5867 5868 5869 5871 5872 5874 5875 5877 5879 5880 5882 5883 5884 5885 5886 5886 5887 5887 5887 5887 5887 5887 5887 5887 5887 5887 5887 5887 5887 5888 5888 5889 5889 5890 5891 5891 5892 5893 5893 5894 5895
5865 5865 5866 5866 5867 5869 5871 5872 5874 5876 5878 5880 5881 5882 5884 5884 5885 5886 5886 5887 5887 5887 5887 5887 5887 5887 5887 5887 5887 5887 5888 5888 5888 5889 5889 5890 5891 5891 5892 5893 5893 5894 5895
5862 5863 5863 5864 5865 5867 5869 5871 5873 5875 5876 5878 5880 5882 5883 5884 5884 5885 5886 5886 5887 5887 5887 5887 5887 5887 5887 5887 5887 5887 5888 5888 5888 5889 5889 5890 5890 5891 5892 5892 5893 5894 5895
5860 5860 5861 5862 5863 5865 5867 5868 5870 5873 5875 5877 5879 5880 5882 5883 5884 5884 5885 5886 5886 5886 5887 5887 5886 5886 5887 5887 5887 5887 5888 5888 5888 5889 5889 5889 5890 5891 5891 5892 5893 5893 5894
5858 5858 5858 5859 5861 5862 5864 5866 5868 5871 5873 5875 5877 5879 5880 5882 5883 5884 5884 5885 5885 5886 5886 5886 5886 5886 5886 5886 5887 5887 5887 5888 5888 5888 5888 5889 5889 5890 5890 5891 5892 5892 5893
5856 5856 5855 5856 5858 5860 5862 5864 5866 5869 5871 5873 5875 5877 5879 5880 5882 5883 5884 5884 5885 5885 5886 5886 5885 5885 5886 5886 5886 5886 5887 5887 5888 5888 5888 5888 5889 5889 5890 5890 5891 5891 5892
5853 5853 5853 5854 5856 5857 5859 5861 5863 5866 5868 5871 5873 5875 5877 5879 5880 5882 5883 5884 5884 5884 5885 5885 5885 5885 5885 5885 5886 5886 5886 5887 5887 5887 5887 5887 5888 5888 5889 5889 5890 5890 5891
5850 5850 5850 5851 5852 5854 5856 5858 5860 5863 5866 5868 5871 5873 5875 5877 5879 5880 5881 5882 5883 5884 5884 5884 5884 5884 5885 5885 5885 5885 5886 5886 5886 5886 5887 5887 5887 5887 5888 5888 5889 5889 5890
5847 5847 5847 5847 5849 5850 5853 5855 5857 5860 5863 5865 5868 5870 5873 5875 5877 5879 5880 5881 5882 5883 5884 5884 5884 5884 5884 5884 5885 5885 5885 5885 5885 5886 5886 5886 5886 5887 5887 5887 5887 5888 5889
5846 5845 5844 5844 5845 5847 5849 5851 5854 5857 5860 5862 5865 5867 5870 5873 5875 5877 5878 5880 5881 5882 5883 5883 5883 5884 5884 5884 5884 5884 5884 5885 5885 5885 5885 5885 5886 5886 5886 5887 5887 5887 5888
5844 5843 5842 5842 5842 5844 5847 5849 5851 5854 5857 5860 5862 5865 5868 5870 5873 5875 5876 5878 5879 5881 5882 5882 5882 5883 5883 5884 5884 5884 5884 5884 5884 5885 5885 5885 5885 5885 5886 5886 5886 5887 5887
5844 5841 5841 5840 5840 5842 5844 5847 5849 5852 5854 5857 5860 5862 5865 5868 5870 5873 5875 5876 5878 5879 5880 5881 5882 5882 5882 5883 5883 5884 5884 5884 5884 5884 5884 5884 5885 5885 5885 5885 5886 5886 5886
5842 5840 5839 5839 5838 5840 5842 5844 5846 5848 5851 5854 5857 5860 5863 5866 5868 5870 5873 5874 5876 5878 5879 5880 5881 5881 5882 5882 5883 5883 5883 5884 5884 5884 5884 5884 5884 5885 5885 5885 5885 5885 5885
5841 5839 5837 5836 5837 5838 5839 5841 5843 5846 5848 5851 5854 5857 5860 5863 5866 5868 5870 5872 5874 5876 5877 5878 5879 5880 5881 5881 5882 5883 5883 5883 5883 5884 5883 5884 5884 5884 5884 5884 5884 5884 5884
5840 5837 5835 5834 5834 5836 5838 5839 5841 5844 5847 5849 5852 5855 5858 5860 5863 5865 5868 5870 5872 5873 5875 5876 5878 5878 5879 5880 5880 5881 5882 5882 5883 5883 5883 5883 5883 5883 5884 5884 5883 5883 5883
5839 5837 5835 5834 5834 5835 5836 5837 5839 5842 5844 5846 5849 5852 5855 5858 5860 5863 5865 5867 5869 5871 5873 5874 5875 5876 5878 5878 5879 5880 5880 5881 5881 5882 5882 5882 5882 5882 5882 5882 5882 5882 5882
5838 5836 5835 5834 5833 5834 5835 5836 5837 5839 5841 5844 5846 5849 5852 5854 5857 5860 5862 5864 5866 5868 5870 5871 5873 5874 5875 5876 5877 5878 5879 5879 5879 5880 5880 5880 5881 5881 5881 5880 5880 5880 5880